Weather History for Key West NAF, FL

Change the Weather History Date:

Sunday, October 28, 2012

  Actual Average Record
Temperature  
Mean Temperature 78 °F -  
Max Temperature 84 °F 83 °F 91 °F (1960)
Min Temperature 75 °F 74 °F 60 °F (1957)
Cooling Degree Days 14    
Growing Degree Days 28 (Base 50)    
Moisture  
Dew Point 64 °F    
Average Humidity 61    
Maximum Humidity 76    
Minimum Humidity 53    
Precipitation  
Precipitation 0.01 in - - ()
Sea Level Pressure  
Sea Level Pressure 29.79 in    
Wind  
Wind Speed 15 mph (NW)    
Max Wind Speed 23 mph    
Max Gust Speed 31 mph    
Visibility 10 miles    
Events Rain    
Averages and records for this station are not official NWS values.
T = Trace of Precipitation, MM = Missing Value Source: NWS Daily Summary

Daily Weather History Graph

Daily Weather History Graph

Search for Another Location

Airport:

Trip Planner

Search our weather history database for the weather conditions in past years. The results will help you decide how hot, cold, wet, or windy it might be!

Date:

Astronomy

Oct. 28, 2012 Rise Set
Actual Time 7:31 AM EDT 6:49 PM EDT
Civil Twilight 7:08 AM EDT 7:12 PM EDT
Nautical Twilight 6:41 AM EDT 7:39 PM EDT
Astronomical Twilight 6:14 AM EDT 8:05 PM EDT
Moon 6:05 PM EDT 6:26 AM EDT
Length of Visible Light 12h 04m
Length of Day
11h 17m
Waxing Gibbous, 99% of the Moon is Illuminated
Oct 28
Waxing Gibbous
Oct 29
Full
Nov 6
Last Quarter
Nov 13
New
Nov 20
First Quarter

Hourly Weather History & Observations

Time (EDT) Temp. Heat Index Dew Point Humidity Pressure Visibility Wind Dir Wind Speed Gust Speed Precip Events Conditions
12:53 AM 78.1 °F - 64.0 °F 62% 29.77 in 10.0 mi NW 16.1 mph 25.3 mph N/A   Clear
1:53 AM 79.0 °F - 64.0 °F 60% 29.77 in 10.0 mi NW 13.8 mph 23.0 mph N/A   Partly Cloudy
2:53 AM 78.1 °F - 64.0 °F 62% 29.76 in 10.0 mi NW 12.7 mph 20.7 mph N/A   Clear
3:53 AM 78.1 °F - 64.9 °F 64% 29.76 in 10.0 mi NW 12.7 mph - N/A   Partly Cloudy
4:53 AM 78.1 °F - 66.9 °F 68% 29.75 in 10.0 mi NW 10.4 mph - N/A   Partly Cloudy
5:53 AM 78.1 °F - 66.0 °F 66% 29.76 in 10.0 mi WNW 15.0 mph 23.0 mph N/A   Mostly Cloudy
6:53 AM 78.1 °F - 66.0 °F 66% 29.78 in 10.0 mi NW 13.8 mph - N/A   Mostly Cloudy
7:29 AM 78.8 °F - 66.2 °F 65% 29.79 in 10.0 mi WNW 19.6 mph 28.8 mph 0.00 in Rain Light Rain
7:35 AM 75.2 °F - 66.2 °F 73% 29.79 in 10.0 mi NW 10.4 mph 28.8 mph 0.01 in   Mostly Cloudy
7:53 AM 75.9 °F - 68.0 °F 76% 29.80 in 10.0 mi WNW 11.5 mph - 0.01 in   Mostly Cloudy
8:53 AM 79.0 °F - 66.9 °F 66% 29.80 in 10.0 mi NW 15.0 mph - N/A   Scattered Clouds
9:53 AM 81.0 °F 82.7 °F 64.9 °F 58% 29.82 in 10.0 mi NW 15.0 mph 23.0 mph N/A   Partly Cloudy
10:53 AM 82.9 °F 85.4 °F 66.9 °F 58% 29.82 in 10.0 mi NW 13.8 mph 23.0 mph N/A   Scattered Clouds
11:53 AM 82.9 °F 85.0 °F 66.0 °F 56% 29.82 in 10.0 mi NW 15.0 mph 25.3 mph N/A   Scattered Clouds
12:53 PM 82.9 °F 84.6 °F 64.9 °F 54% 29.81 in 10.0 mi WNW 23.0 mph 31.1 mph N/A   Scattered Clouds
1:53 PM 82.9 °F 85.0 °F 66.0 °F 56% 29.79 in 10.0 mi WNW 20.7 mph 26.5 mph N/A   Scattered Clouds
2:53 PM 82.9 °F 84.4 °F 64.0 °F 53% 29.77 in 10.0 mi WNW 18.4 mph 27.6 mph N/A   Scattered Clouds
2:55 PM 82.4 °F 83.9 °F 64.4 °F 54% 29.77 in 10.0 mi WNW 20.7 mph 28.8 mph N/A   Scattered Clouds
3:53 PM 82.0 °F 83.4 °F 64.0 °F 54% 29.77 in 10.0 mi WNW 20.7 mph 27.6 mph N/A   Scattered Clouds
4:53 PM 80.1 °F 81.5 °F 63.0 °F 56% 29.76 in 10.0 mi WNW 17.3 mph 26.5 mph N/A   Scattered Clouds
5:53 PM 78.1 °F - 64.9 °F 64% 29.78 in 10.0 mi WNW 19.6 mph 25.3 mph N/A   Scattered Clouds
6:53 PM 77.0 °F - 62.1 °F 60% 29.79 in 10.0 mi WNW 18.4 mph 25.3 mph N/A   Scattered Clouds
7:53 PM 77.0 °F - 61.0 °F 58% 29.80 in 10.0 mi WNW 16.1 mph 23.0 mph N/A   Scattered Clouds
8:53 PM 75.9 °F - 60.1 °F 58% 29.82 in 10.0 mi WNW 13.8 mph 24.2 mph N/A   Scattered Clouds
9:53 PM 75.9 °F - 61.0 °F 60% 29.83 in 10.0 mi NW 18.4 mph 25.3 mph N/A   Scattered Clouds
10:53 PM 75.9 °F - 57.9 °F 54% 29.84 in 10.0 mi WNW 19.6 mph 27.6 mph N/A   Mostly Cloudy
11:53 PM 75.0 °F - 57.0 °F 53% 29.83 in 10.0 mi NW 15.0 mph 24.2 mph N/A   Partly Cloudy